Погода в Кобяе

Россия / Республика Саха (Якутия)     63°34′33″N   126°30′12″E
темп.,
°C
ветер,
м/с
пор.,
м/с
влажн.,
%
обл.,
%
осадки,
мм/ч
давл.,
гПа
погр.,
м
3 марта, ср
ср300:00−36з129753 0.0 102319
03:00−37зсз129760 0.0 102319
06:00−36зсз129688 0.0 102220
09:00−35зсз239694 0.0 1022114
12:00−32зсз249597 0.0 1021306
15:00−30зсз359599 0.1 1020389
18:00−31зсз3795100 0.1 1020438
21:00−31зсз4996100 0.2 1019510
4 марта, чт
чт400:00−31зсз4995100 0.1 1018594
03:00−31зсз4994100 0.3 1017692
06:00−33сз41093100 0.1 1018673
09:00−34зсз41093100 0.1 1018604
12:00−33зсз4892100 0.0 1019667
15:00−32сз4891100 0.1 1021697
18:00−34сз3993100 0.0 1023599
21:00−35зсз3994100 0.1 1025377
5 марта, пт
пт500:00−38зсз389745 0.0 1025182
03:00−38зсз389744 0.0 1026188
06:00−38зсз399670 0.0 1027231
09:00−36зсз4109462 0.0 1028336
12:00−33зсз489384 0.0 1028415
15:00−30зсз479291 0.0 1028486
18:00−32зсз3895100 0.0 1028239
21:00−34зсз399875 0.0 1028195
6 марта, сб
сб600:00−35зсз399739 0.0 1027225
03:00−36зсз399633 0.0 1027219
06:00−37зсз39967 0.0 1027201
09:00−35зсз389510 0.0 1026249
12:00−30зсз359450 0.0 1025313
15:00−27зсз249356 0.0 1025374
18:00−31зсз129741 0.0 102419
21:00−34зсз129821 0.0 102519
7 марта, вс
вс700:00−36зсз111000 0.0 102419
03:00−37з11980 0.0 102419
06:00−37зсз11970 0.0 102419
09:00−33сз00930 0.0 102428
12:00−27ссз00880 0.0 1023268
15:00−23с00872 0.0 1022326
18:00−28всв11950 0.0 102119
21:00−30юв22970 0.0 102220